Dewpoint
55 50 43 36 20 18 13 9 9 6 22 41 44 48 48 44 43 46 60 61 62 63 69 70 71 71 71 71 71 71 70 69 69 69 68 68 68 69 69 69 69 69 66 64 64 63 62 61 62
44 42 32 23 18 14 7 8 5 19 38 38 37 47 46 43 52 59 62 59 61 67 68 70 71 71 71 71 70 70 69 69 69 68 68 68 68 68 69 68 68 68 67 64 64 63 62 62 64
44 34 25 22 19 12 8 13 15 18 31 33 34 34 42 54 54 61 65 65 66 65 66 69 70 70 70 70 69 69 68 68 68 67 68 68 69 69 69 68 68 68 67 64 64 63 63 64 65
34 28 24 17 8 8 7 14 16 15 20 29 36 27 56 62 61 60 65 65 65 64 67 69 68 69 69 69 69 68 68 67 67 67 68 68 69 70 70 69 68 68 67 64 63 63 63 65 64
29 22 17 15 13 13 7 10 11 13 21 39 41 38 55 62 65 65 66 64 65 67 69 68 68 68 68 69 68 68 67 67 67 67 67 68 68 69 69 69 68 68 67 64 63 63 64 64 62
25 22 15 10 12 13 33 37 39 22 22 40 44 46 48 61 63 66 67 67 67 68 68 68 68 68 68 68 67 67 67 67 67 67 67 68 67 68 68 69 68 67 66 65 65 65 64 63 62
21 19 14 12 18 24 35 40 41 42 44 49 49 47 48 56 61 65 67 67 67 67 67 67 67 67 67 66 66 66 67 67 67 67 67 67 66 66 67 68 67 66 65 65 64 64 63 63 61
20 15 13 12 14 23 26 34 42 34 46 53 50 48 53 60 62 63 64 65 65 65 64 64 65 64 64 64 66 66 67 67 67 66 65 65 64 65 65 66 65 65 65 64 64 64 63 62 60
18 16 16 17 20 20 22 24 31 47 41 50 51 56 60 61 61 60 60 61 62 62 62 62 62 62 63 64 65 66 67 66 65 64 63 60 57 57 59 64 65 65 64 64 63 62 61 59 57
16 17 20 17 17 19 21 24 43 48 45 46 47 51 59 59 60 57 57 58 59 58 60 62 60 59 59 62 63 64 64 62 62 59 59 56 57 57 59 63 64 64 64 63 62 61 60 58 49
17 17 19 18 21 21 21 26 30 37 46 46 48 56 58 58 59 58 56 56 58 57 57 57 59 58 58 59 60 61 62 60 60 60 59 60 58 58 60 60 58 60 60 55 56 57 53 53 52
17 17 20 19 24 23 23 34 37 46 54 52 55 58 58 57 57 56 55 55 56 57 55 56 57 57 57 58 59 60 60 59 59 59 61 61 59 58 58 57 58 57 55 53 54 54 56 53 52
18 18 20 26 27 25 30 38 43 49 55 56 56 56 57 56 55 55 54 54 54 54 55 57 57 57 57 56 59 59 59 58 58 57 60 60 59 59 58 58 57 56 57 55 56 55 53 52 50
19 22 20 28 27 31 41 45 46 49 50 53 54 55 55 55 55 54 54 53 53 53 54 56 57 57 57 56 55 58 58 58 55 55 60 59 60 59 59 60 59 59 57 57 55 54 53 52 50
20 17 19 27 29 30 38 37 42 42 45 49 52 53 55 54 54 53 54 52 52 52 54 56 56 57 57 56 58 58 57 58 60 59 60 60 61 59 61 59 60 58 58 57 56 54 54 50 48
20 19 17 24 32 39 37 37 39 42 42 42 51 52 53 51 54 53 53 51 52 52 55 54 55 55 56 57 57 55 55 58 59 59 61 60 61 60 60 61 59 59 58 57 56 54 53 51 48
20 15 20 22 30 32 42 42 45 45 41 39 47 48 51 53 53 53 53 52 53 52 54 53 53 53 53 53 46 49 53 57 57 57 58 61 61 61 61 60 60 59 58 57 56 55 53 49 46
16 15 16 25 30 28 30 41 47 50 38 39 42 47 48 48 50 52 51 52 52 52 53 51 50 51 54 55 47 50 54 55 56 55 55 60 61 62 62 61 60 59 57 57 55 53 51 49 46
14 15 21 25 27 31 21 24 42 44 41 39 40 45 45 48 51 51 50 52 52 50 51 50 48 51 57 56 53 55 53 55 55 55 55 60 60 61 61 61 60 59 57 56 56 53 50 45 44
16 15 17 16 24 21 16 20 38 45 43 37 39 43 44 46 51 50 49 50 51 51 51 53 54 54 56 57 57 55 54 52 53 55 57 61 61 60 60 60 59 58 57 56 55 52 49 48 46
18 17 19 24 23 23 21 17 26 35 34 35 38 41 44 45 49 51 50 50 51 53 53 54 54 54 56 59 58 56 54 53 51 53 59 61 61 60 60 60 60 59 58 56 54 53 50 46 46
17 19 19 21 20 16 23 19 22 24 35 33 35 39 41 42 49 51 52 52 53 53 54 55 54 54 55 59 58 57 52 51 51 53 57 60 61 61 60 60 59 58 57 55 54 52 50 48 46
20 26 24 23 21 21 22 23 20 23 27 31 35 38 41 43 44 50 50 51 52 53 55 55 54 54 56 56 58 57 56 54 55 53 59 59 61 61 60 60 59 58 57 56 54 52 51 48 46
22 23 26 25 24 24 21 19 26 27 32 27 34 37 39 41 42 45 48 51 51 53 55 55 55 54 56 57 57 59 58 56 57 59 59 60 60 60 60 59 58 58 57 56 54 51 49 46 46
23 24 25 24 25 26 21 20 25 28 30 27 31 35 38 40 41 43 44 45 50 53 55 56 56 55 56 59 58 58 59 60 59 59 59 59 59 59 58 58 57 56 55 53 50 49 49 46 45
25 24 28 27 29 29 29 20 19 26 24 24 23 28 36 39 41 42 44 46 46 50 55 56 56 55 55 57 60 59 59 60 60 60 61 59 58 58 57 57 56 54 51 50 49 48 47 45 44
25 24 27 32 32 31 29 27 25 22 19 20 23 27 33 33 40 41 42 47 48 49 51 55 55 55 55 57 60 60 59 60 61 61 60 59 59 58 57 56 51 50 48 47 47 46 43 43 44
24 25 26 26 27 26 18 16 17 21 19 19 20 28 33 37 38 39 42 45 46 49 51 54 55 54 55 56 61 59 57 59 61 61 60 60 59 57 55 51 49 48 46 47 45 44 43 42 42
23 24 30 28 26 28 27 23 35 27 24 23 27 26 35 37 40 41 42 44 45 47 50 55 56 55 56 58 61 61 60 59 61 60 59 59 58 52 50 49 48 46 45 46 44 42 40 40 41
25 25 28 29 27 32 38 27 28 30 26 27 27 28 32 36 37 42 44 46 46 48 51 57 57 57 60 60 61 61 60 60 59 59 59 57 53 51 49 48 47 45 46 45 43 39 37 43 42
Lifted_Index
6 5 4 3 3 2 1 1 0 -0 -1 -1 -1 -1 -1 -1 -2 -3 -3 -1 -1 -2 -5 -7 -7 -7 -6 -6 -5 -4 -3 -3 -2 -2 -1 -1 -1 -1 -2 -2 -2 -2 -0 1 1 2 2 2 2
6 5 4 3 2 1 1 0 0 -0 -1 -1 -1 -1 -1 -1 -2 -4 -4 -3 -2 -4 -5 -6 -6 -6 -6 -5 -5 -4 -3 -3 -2 -1 -1 -1 -1 -2 -2 -2 -2 -2 -0 1 1 2 2 2 2
6 4 3 2 1 1 0 -0 -0 -0 -0 -0 0 -1 -2 -3 -3 -5 -6 -5 -4 -5 -5 -6 -5 -5 -5 -5 -4 -4 -3 -2 -2 -2 -1 -1 -2 -2 -2 -2 -2 -2 -1 0 1 2 2 2 1
5 4 2 2 1 0 -0 -0 0 1 1 1 1 -1 -4 -5 -5 -6 -7 -6 -5 -5 -5 -5 -4 -4 -4 -4 -4 -3 -3 -2 -2 -2 -2 -2 -2 -3 -3 -3 -3 -2 -1 0 1 1 1 2 2
3 3 2 1 0 -0 -0 -0 0 1 1 1 1 -1 -3 -5 -6 -6 -7 -6 -5 -5 -5 -4 -4 -3 -3 -3 -3 -3 -3 -2 -2 -2 -2 -2 -2 -3 -3 -3 -3 -3 -1 -0 1 1 1 2 2
3 2 1 0 -0 -1 -0 0 1 1 0 -0 -0 -1 -1 -3 -5 -6 -6 -6 -5 -5 -4 -4 -3 -3 -3 -3 -3 -3 -3 -2 -2 -2 -2 -2 -2 -2 -3 -3 -3 -2 -1 -0 0 0 1 2 3
2 2 1 -0 -0 -0 -0 0 0 -1 -1 -1 -1 -1 -1 -3 -5 -6 -6 -5 -5 -4 -4 -3 -3 -2 -2 -3 -3 -3 -3 -2 -2 -2 -1 -1 -1 -1 -2 -2 -2 -1 -1 -0 -0 0 1 2 3
2 2 1 0 -0 -0 0 0 -1 -2 -2 -1 -1 -2 -3 -4 -5 -5 -5 -5 -4 -4 -3 -2 -1 -1 -1 -1 -2 -2 -2 -2 -1 -1 0 1 1 1 0 -1 -1 -0 -0 -0 -0 0 2 3 4
2 2 1 0 0 0 0 -0 -1 -2 -2 -1 -1 -2 -4 -4 -4 -4 -4 -4 -4 -3 -2 -1 1 1 1 0 -1 -1 -1 -1 0 1 2 3 3 3 2 1 0 -0 -0 -0 1 2 3 4 5
1 1 0 0 1 1 1 0 -1 -1 -2 -1 -0 -1 -3 -4 -4 -4 -4 -3 -3 -3 -2 -0 1 2 2 2 1 0 0 1 1 2 3 4 4 4 3 2 1 0 0 1 2 3 3 4 4
1 1 1 1 1 2 1 1 -1 -2 -2 -1 -1 -2 -3 -4 -3 -3 -3 -3 -2 -2 -1 -0 1 2 3 3 2 2 2 2 2 3 3 3 3 3 2 2 1 1 1 2 2 3 2 3 3
1 1 1 1 1 1 1 -0 -1 -2 -3 -2 -2 -2 -3 -3 -2 -2 -2 -2 -2 -1 -1 0 2 3 4 4 4 3 3 3 3 3 2 2 2 2 1 1 1 1 1 2 2 2 2 3 3
1 1 1 1 1 0 -0 -0 -1 -3 -3 -3 -3 -2 -2 -2 -2 -1 -1 -1 -1 -1 0 2 3 5 5 6 5 4 3 3 3 3 2 1 1 1 0 -1 -1 0 1 1 1 2 2 3 4
1 2 1 0 -0 -0 -0 0 -0 -2 -3 -2 -2 -2 -1 -1 -0 0 -0 0 0 1 2 3 5 6 6 6 6 5 4 4 4 3 2 1 1 0 -1 -2 -2 -1 -0 0 1 2 2 3 4
2 2 1 0 -1 -1 -0 0 0 -1 -2 -2 -2 -2 -1 0 1 1 1 1 2 2 3 4 5 6 6 6 6 5 4 3 3 2 1 0 -0 -1 -2 -2 -2 -1 -0 0 1 2 2 3 4
2 2 1 -0 -1 -0 -0 -0 -0 -1 -2 -2 -2 -2 -1 0 2 2 2 2 3 4 4 5 5 5 6 6 6 6 5 3 2 1 0 -0 -1 -2 -2 -2 -1 -1 0 1 1 2 2 3 4
1 1 0 -0 -0 -0 -0 -0 -0 -1 -2 -2 -2 -2 -1 -0 1 1 2 2 3 4 5 5 5 5 6 6 6 6 4 3 1 1 -0 -1 -2 -2 -2 -2 -1 -1 0 1 1 1 2 4 5
0 0 0 -0 -0 -0 -0 -0 -0 -1 -2 -2 -2 -2 -1 -1 -1 -0 1 2 3 4 5 5 5 5 5 5 5 4 3 2 1 1 -0 -2 -3 -3 -3 -2 -1 -1 -0 0 1 1 2 4 5
0 0 0 -0 0 0 0 -0 -1 -1 -1 -1 -1 -1 -1 -1 -1 -1 0 1 2 3 4 4 4 4 3 3 3 2 1 1 1 1 -0 -2 -3 -3 -3 -2 -1 -1 -0 0 1 1 2 3 4
1 1 0 -0 0 1 1 0 -1 -1 -1 -1 -1 -1 -1 -1 -2 -1 -0 1 1 2 2 2 2 2 1 1 1 0 1 1 1 0 -1 -2 -3 -3 -2 -2 -2 -1 -0 0 1 1 2 3 4
1 1 0 -0 0 0 1 0 -1 -1 -1 -1 -1 -1 -1 -1 -2 -2 -1 -0 0 0 1 1 1 1 0 -0 -1 -1 -0 1 1 -0 -2 -3 -3 -3 -3 -2 -2 -1 -0 0 0 1 1 3 4
1 0 -0 0 0 0 0 0 -0 -0 -1 -1 -1 -1 -2 -1 -2 -2 -2 -1 -1 -1 -1 -1 -0 -0 -1 -1 -2 -2 -1 -0 0 -1 -2 -3 -3 -3 -3 -2 -2 -1 -0 0 1 1 2 3 5
1 0 0 0 0 0 -0 0 0 0 -0 -1 -1 -2 -2 -2 -2 -2 -2 -2 -2 -2 -2 -1 -1 -1 -2 -2 -2 -2 -2 -1 -1 -2 -3 -3 -3 -3 -3 -2 -2 -1 -0 0 1 1 2 4 5
1 1 0 0 0 0 -0 -0 0 0 0 -1 -2 -2 -2 -2 -2 -2 -2 -2 -3 -3 -3 -2 -2 -2 -3 -3 -3 -3 -3 -2 -2 -3 -3 -3 -3 -3 -2 -2 -1 -1 0 1 2 2 3 4 5
1 1 0 -0 -0 -0 -0 -0 0 0 0 -0 -1 -2 -2 -2 -2 -2 -2 -2 -3 -3 -3 -4 -3 -3 -3 -3 -3 -3 -3 -3 -3 -3 -3 -2 -2 -1 -1 -1 -1 -0 0 1 2 3 4 5 5
1 1 0 -0 -0 -0 -0 -0 -0 0 1 0 -0 -1 -2 -2 -2 -2 -2 -2 -2 -3 -3 -4 -4 -4 -4 -4 -4 -4 -4 -4 -4 -4 -3 -2 -1 -0 -1 -1 -0 -0 0 1 2 3 4 5 5
1 1 0 -0 -0 -0 -0 -0 -0 0 1 1 1 0 -1 -1 -2 -2 -3 -2 -2 -3 -3 -3 -4 -4 -3 -4 -4 -4 -3 -4 -4 -4 -3 -2 -1 -1 -1 -1 -1 -0 1 1 2 3 4 5 6
1 1 -0 -0 -1 -1 -0 -0 0 0 1 1 1 1 0 -1 -1 -2 -3 -3 -3 -3 -3 -3 -4 -4 -4 -4 -4 -4 -3 -3 -4 -3 -3 -2 -1 -1 -1 -1 -0 0 1 2 3 3 4 5 7
1 1 -0 -1 -1 -1 -1 -0 -0 0 0 1 1 1 1 0 -1 -2 -3 -3 -3 -3 -3 -4 -5 -5 -5 -5 -5 -4 -4 -3 -3 -3 -2 -2 -1 -1 -1 -1 -0 1 1 2 3 4 5 6 7
1 0 -0 -1 -1 -1 -1 -1 -0 0 0 0 1 1 1 1 -1 -2 -3 -3 -4 -4 -4 -5 -6 -6 -6 -6 -5 -5 -4 -4 -3 -3 -2 -2 -1 -1 -1 -0 0 1 2 2 4 5 6 7 7